When you browse on this site, cookies collect data to enhance your experience and personalize the content and advertising you see.
Visit our Privacy Policy to learn more. By continuing to use the site, you agree to this use of cookies and data.
  • In Österreich
  • Länderverzeichnis
  • Für 7 Tage
  • Wassertemperatur
  • Satellitenkarten
  • Wetterkarte
  • News
  • Widgets
  • user-avatar
    Anmelden

    Stündliche Wetter Namibe

    Heute, 10 Dezember, Montag

    Zeit Temperatur Niederschläge Wind Luftdruck Luftfeuchtigkeit
    00:00 +25°C° 0 mm 2 m/S 759 mmHg 72%
    01:00 +24°C° 0 mm 2 m/S 760 mmHg 76%
    02:00 +24°C° 0 mm 2 m/S 760 mmHg 78%
    03:00 +24°C° 0 mm 2 m/S 759 mmHg 80%
    04:00 +24°C° 0 mm 1 m/S 759 mmHg 81%
    05:00 +24°C° 0 mm 1 m/S 760 mmHg 81%
    06:00 +24°C° 0 mm 1 m/S 760 mmHg 81%
    07:00 +24°C° 0 mm 1 m/S 760 mmHg 81%
    08:00 +26°C° 0 mm 2 m/S 760 mmHg 73%
    09:00 +28°C° 0 mm 2 m/S 760 mmHg 64%
    10:00 +30°C° 0 mm 3 m/S 760 mmHg 56%
    11:00 +32°C° 0 mm 4 m/S 760 mmHg 53%
    12:00 +33°C° 0 mm 4 m/S 760 mmHg 50%
    13:00 +34°C° 0 mm 5 m/S 759 mmHg 47%
    14:00 +33°C° 0 mm 5 m/S 759 mmHg 48%
    15:00 +32°C° 0 mm 5 m/S 758 mmHg 50%
    16:00 +32°C° 0 mm 5 m/S 758 mmHg 51%
    17:00 +29°C° 0 mm 5 m/S 758 mmHg 56%
    18:00 +28°C° 0 mm 4 m/S 759 mmHg 62%
    19:00 +26°C° 0 mm 4 m/S 759 mmHg 67%
    20:00 +26°C° 0 mm 3 m/S 760 mmHg 68%
    21:00 +26°C° 0 mm 2 m/S 761 mmHg 70%
    22:00 +25°C° 0 mm 2 m/S 761 mmHg 72%
    23:00 +25°C° 0 mm 2 m/S 761 mmHg 73%

    Morgen, 11 Dezember, Dienstag

    Zeit Temperatur Niederschläge Wind Luftdruck Luftfeuchtigkeit
    00:00 +25°C° 0 mm 1 m/S 761 mmHg 74%
    01:00 +25°C° 0 mm 1 m/S 761 mmHg 75%
    02:00 +25°C° 0 mm 1 m/S 760 mmHg 76%
    03:00 +24°C° 0 mm 1 m/S 760 mmHg 78%
    04:00 +24°C° 0 mm 1 m/S 760 mmHg 79%
    05:00 +24°C° 0 mm 1 m/S 760 mmHg 79%
    06:00 +25°C° 0 mm 1 m/S 760 mmHg 78%
    07:00 +25°C° 0 mm 1 m/S 760 mmHg 78%
    08:00 +27°C° 0 mm 1 m/S 760 mmHg 69%
    09:00 +29°C° 0 mm 2 m/S 760 mmHg 60%
    10:00 +31°C° 0 mm 3 m/S 760 mmHg 51%
    11:00 +33°C° 0 mm 3 m/S 760 mmHg 48%
    12:00 +34°C° 0 mm 4 m/S 759 mmHg 44%
    13:00 +35°C° 0 mm 5 m/S 759 mmHg 41%
    14:00 +34°C° 0 mm 5 m/S 759 mmHg 43%
    15:00 +33°C° 0 mm 5 m/S 758 mmHg 45%
    16:00 +32°C° 0 mm 6 m/S 758 mmHg 48%
    17:00 +30°C° 0 mm 5 m/S 758 mmHg 54%
    18:00 +28°C° 0 mm 5 m/S 759 mmHg 60%
    19:00 +27°C° 0 mm 4 m/S 759 mmHg 66%
    20:00 +26°C° 0 mm 4 m/S 760 mmHg 68%
    21:00 +26°C° 0 mm 3 m/S 761 mmHg 71%
    22:00 +25°C° 0 mm 3 m/S 761 mmHg 73%
    23:00 +25°C° 0 mm 2 m/S 761 mmHg 74%

    übermorgen, 12 Dezember, Mittwoch

    Zeit Temperatur Niederschläge Wind Luftdruck Luftfeuchtigkeit
    00:00 +25°C° 0 mm 2 m/S 761 mmHg 76%
    01:00 +25°C° 0 mm 2 m/S 761 mmHg 77%
    02:00 +24°C° 0 mm 2 m/S 760 mmHg 78%
    03:00 +24°C° 0 mm 2 m/S 760 mmHg 78%
    04:00 +24°C° 0 mm 2 m/S 759 mmHg 79%
    05:00 +24°C° 0 mm 2 m/S 759 mmHg 78%
    06:00 +25°C° 0 mm 2 m/S 759 mmHg 77%
    07:00 +25°C° 0 mm 2 m/S 759 mmHg 76%
    08:00 +27°C° 0 mm 2 m/S 760 mmHg 66%
    09:00 +29°C° 0 mm 2 m/S 760 mmHg 56%
    10:00 +31°C° 0 mm 2 m/S 760 mmHg 46%
    11:00 +33°C° 0 mm 3 m/S 759 mmHg 42%
    12:00 +35°C° 0 mm 4 m/S 759 mmHg 39%
    13:00 +36°C° 0 mm 5 m/S 758 mmHg 35%
    14:00 +35°C° 0 mm 5 m/S 758 mmHg 38%
    15:00 +34°C° 0 mm 6 m/S 757 mmHg 41%
    16:00 +33°C° 0 mm 6 m/S 757 mmHg 44%
    17:00 +30°C° 0 mm 6 m/S 757 mmHg 48%
    18:00 +29°C° 0 mm 6 m/S 758 mmHg 52%
    19:00 +27°C° 0 mm 6 m/S 758 mmHg 56%
    20:00 +27°C° 0 mm 5 m/S 759 mmHg 56%
    21:00 +27°C° 0 mm 5 m/S 759 mmHg 57%
    22:00 +26°C° 0 mm 4 m/S 760 mmHg 57%
    23:00 +26°C° 0 mm 4 m/S 760 mmHg 56%

    13 Dezember, Donnerstag

    Zeit Temperatur Niederschläge Wind Luftdruck Luftfeuchtigkeit
    00:00 +26°C° 0 mm 3 m/S 759 mmHg 56%
    01:00 +26°C° 0 mm 3 m/S 759 mmHg 56%
    02:00 +25°C° 0 mm 3 m/S 759 mmHg 57%
    03:00 +25°C° 0 mm 3 m/S 759 mmHg 58%
    04:00 +25°C° 0 mm 3 m/S 758 mmHg 59%
    05:00 +25°C° 0 mm 3 m/S 759 mmHg 57%
    06:00 +26°C° 0 mm 3 m/S 759 mmHg 55%
    07:00 +26°C° 0 mm 3 m/S 760 mmHg 53%
    08:00 +28°C° 0 mm 3 m/S 760 mmHg 46%
    09:00 +30°C° 0 mm 3 m/S 760 mmHg 38%
    10:00 +34°C° 0 mm 3 m/S 760 mmHg 31%
    11:00 +34°C° 0 mm 4 m/S 759 mmHg 30%
    12:00 +35°C° 0 mm 5 m/S 759 mmHg 30%
    13:00 +35°C° 0 mm 5 m/S 758 mmHg 30%
    14:00 +35°C° 0 mm 6 m/S 757 mmHg 30%
    15:00 +34°C° 0 mm 6 m/S 757 mmHg 31%
    16:00 +33°C° 0 mm 6 m/S 757 mmHg 31%
    17:00 +32°C° 0 mm 6 m/S 757 mmHg 37%
    18:00 +29°C° 0 mm 5 m/S 758 mmHg 42%
    19:00 +28°C° 0 mm 5 m/S 758 mmHg 48%
    20:00 +27°C° 0 mm 4 m/S 759 mmHg 51%
    21:00 +27°C° 0 mm 3 m/S 760 mmHg 53%
    22:00 +26°C° 0 mm 3 m/S 760 mmHg 56%
    23:00 +26°C° 0 mm 3 m/S 760 mmHg 58%

    14 Dezember, Freitag

    Zeit Temperatur Niederschläge Wind Luftdruck Luftfeuchtigkeit
    00:00 +26°C° 0 mm 3 m/S 760 mmHg 59%
    01:00 +25°C° 0 mm 2 m/S 759 mmHg 61%
    02:00 +25°C° 0 mm 2 m/S 759 mmHg 64%
    03:00 +24°C° 0 mm 3 m/S 759 mmHg 67%
    04:00 +24°C° 0 mm 3 m/S 759 mmHg 70%
    05:00 +24°C° 0 mm 3 m/S 759 mmHg 70%
    06:00 +24°C° 0 mm 2 m/S 760 mmHg 70%
    07:00 +24°C° 0 mm 2 m/S 760 mmHg 70%
    08:00 +26°C° 0 mm 3 m/S 760 mmHg 58%
    09:00 +29°C° 0 mm 3 m/S 760 mmHg 45%
    10:00 +31°C° 0 mm 3 m/S 760 mmHg 33%
    11:00 +32°C° 0 mm 4 m/S 759 mmHg 35%
    12:00 +32°C° 0 mm 5 m/S 758 mmHg 36%
    13:00 +33°C° 0 mm 6 m/S 758 mmHg 38%
    14:00 +32°C° 0 mm 5 m/S 757 mmHg 40%
    15:00 +32°C° 0 mm 5 m/S 757 mmHg 43%
    16:00 +30°C° 0 mm 5 m/S 756 mmHg 45%
    17:00 +29°C° 0 mm 5 m/S 757 mmHg 50%
    18:00 +28°C° 0 mm 5 m/S 757 mmHg 56%
    19:00 +27°C° 0 mm 4 m/S 758 mmHg 61%
    20:00 +26°C° 0 mm 4 m/S 758 mmHg 64%
    21:00 +26°C° 0 mm 3 m/S 759 mmHg 67%
    22:00 +25°C° 0 mm 3 m/S 759 mmHg 69%
    23:00 +25°C° 0 mm 3 m/S 759 mmHg 72%

    15 Dezember, Samstag

    Zeit Temperatur Niederschläge Wind Luftdruck Luftfeuchtigkeit
    00:00 +24°C° 0 mm 3 m/S 759 mmHg 74%
    01:00 +24°C° 0 mm 3 m/S 758 mmHg 77%
    02:00 +24°C° 0 mm 3 m/S 758 mmHg 79%
    03:00 +22°C° 0 mm 3 m/S 758 mmHg 81%
    04:00 +22°C° 0 mm 3 m/S 758 mmHg 83%
    05:00 +22°C° 0 mm 3 m/S 758 mmHg 82%
    06:00 +24°C° 0 mm 3 m/S 759 mmHg 80%
    07:00 +24°C° 0 mm 3 m/S 759 mmHg 78%
    08:00 +26°C° 0 mm 4 m/S 759 mmHg 68%
    09:00 +28°C° 0 mm 4 m/S 759 mmHg 58%
    10:00 +30°C° 0 mm 4 m/S 759 mmHg 49%
    11:00 +32°C° 0 mm 5 m/S 758 mmHg 47%
    12:00 +33°C° 0 mm 5 m/S 757 mmHg 45%
    13:00 +34°C° 0 mm 5 m/S 757 mmHg 44%
    14:00 +33°C° 0 mm 5 m/S 757 mmHg 46%
    15:00 +33°C° 0 mm 6 m/S 756 mmHg 48%
    16:00 +32°C° 0 mm 6 m/S 756 mmHg 50%
    17:00 +30°C° 0 mm 5 m/S 757 mmHg 55%
    18:00 +28°C° 0 mm 4 m/S 757 mmHg 60%
    19:00 +27°C° 0 mm 4 m/S 758 mmHg 65%
    20:00 +27°C° 0 mm 3 m/S 758 mmHg 67%
    21:00 +26°C° 0 mm 3 m/S 759 mmHg 68%
    22:00 +26°C° 0 mm 2 m/S 759 mmHg 70%
    23:00 +26°C° 0 mm 2 m/S 759 mmHg 70%
    Mehr zeigen